Terminal Aerodrome Forecast
Issued by NWS Cleveland, OH

Home | Current Version | Previous Version | Text Only | Print | Product List | Glossary Off
Versions: 1 2 3 4 5 6 7 8 9 10 11 12 13 14 15 16 17 18 19

616
FTUS41 KCLE 212122 AAC
TAFTOL
TAF AMD
KTOL 212122Z 2121/2218 23012KT 6SM -RA VCTS OVC040CB
     FM212300 23005KT P6SM SCT035 BKN080
      TEMPO 2209/2212 5SM BR
     FM221200 24012KT P6SM VCSH BKN035=

USA.gov is the U.S. government's official web portal to all federal, state and local government web resources and services.